Home   Weather   Siegen   Past weeks
Flag for Germany

Past Weather in Siegen, North Rhine-Westphalia, Germany — Yesterday and Last 2 Weeks

Now
21 °F

Low clouds.


Feels Like: 15 °F
Forecast: 26 / 12 °F
Wind: 5 mph from Northeast

Location: Siegerland Airport

Current Time: Jan 23, 2019 at 6:58:25 pm

Latest Report: Jan 23, 2019 at 5:50 pm


Visibility: 4 mi

Pressure: 29.45 "Hg

Humidity: 93%

Dew Point: 19 °F

Location of SiegenLocation

Past Weather in Siegen — Graph

°F

Siegen Temperature Yesterday

Maximum temperature yesterday: 21 °F (at 9:20 am)
Minimum temperature yesterday: 18 °F (at 12:50 pm)
Average temperature yesterday: 20 °F

High & Low Weather Summary for the Past Weeks

 TemperatureHumidityPressure
High43 °F (Jan 13, 12:20 pm)100% (Jan 8, 5:20 pm)30.21 "Hg (Jan 8, 5:20 pm)
Low16 °F (Jan 21, 8:20 am)51% (Jan 18, 2:20 pm)29.39 "Hg (Jan 23, 7:50 am)
Average30 °F92%29.87 "Hg
* Reported Jan 8 5:20 pm — Jan 23 5:50 pm, Siegen. Weather by CustomWeather, © 2019

Note: Actual official high and low records may vary slightly from our data, if they occured in-between our weather recording intervals... More about our weather records

Advertising

Siegen Weather History for the Previous 24 Hours

Scroll right to see more
 ConditionsComfort  
Time TempWeatherWind HumidityBarometerVisibility
5:50 pm
Wed, Jan 23
21 °FLow clouds.5 mph93%29.45 "Hg4 mi
5:20 pm21 °FLow clouds.5 mph93%29.45 "Hg4 mi
4:50 pm21 °FLow clouds.6 mph93%29.45 "Hg4 mi
4:20 pm19 °FLow clouds.6 mph100%29.42 "Hg4 mi
3:50 pm19 °FIce fog.6 mph100%29.42 "Hg3 mi
3:20 pm19 °FIce fog.7 mph100%29.42 "Hg2 mi
2:20 pm19 °FIce fog.9 mph100%29.42 "Hg2 mi
1:50 pm21 °FIce fog.8 mph93%29.42 "Hg2 mi
1:20 pm19 °FIce fog.8 mph100%29.39 "Hg2 mi
12:50 pm19 °FIce fog.9 mph100%29.39 "Hg2 mi
12:20 pm19 °FIce fog.9 mph100%29.39 "Hg2 mi
11:50 am19 °FIce fog.10 mph100%29.42 "Hg2 mi
11:20 am19 °FIce fog.12 mph100%29.39 "Hg2 mi
10:50 am19 °FIce fog.10 mph100%29.39 "Hg2 mi
10:20 am19 °FIce fog.12 mph100%29.39 "Hg2 mi
9:50 am19 °FIce fog.15 mph100%29.39 "Hg2 mi
9:20 am19 °FIce fog.14 mph100%29.39 "Hg2 mi
8:50 am19 °FIce fog.14 mph100%29.39 "Hg2 mi
8:20 am19 °FIce fog.12 mph100%29.39 "Hg2 mi
7:50 am19 °FIce fog.12 mph100%29.39 "Hg2 mi
6:20 pm
Tue, Jan 22
21 °FIce fog.16 mph100%29.56 "Hg2 mi
Weather by CustomWeather, © 2019

See weather overview